• In Hungary
  • List of Countries
  • For 7 days
  • Water Temperature
  • Satellite Maps
  • Weather Map
  • News
  • Weather Widgets
  • user-avatar
    Login

    Hourly Weather Ko Mak

    Today, 22 November, Wednesday

    Time Temperature Precipitation Wind Pressure Humidity
    00:00 +26°C° 0.2 mm 2 mps 753 mmHg 96%
    01:00 +26°C° 0 mm 2 mps 753 mmHg 95%
    02:00 +26°C° 0 mm 2 mps 753 mmHg 95%
    03:00 +26°C° 0 mm 2 mps 753 mmHg 95%
    04:00 +26°C° 0 mm 2 mps 753 mmHg 94%
    05:00 +26°C° 0 mm 2 mps 753 mmHg 95%
    06:00 +26°C° 0 mm 2 mps 753 mmHg 95%
    07:00 +27°C° 0 mm 2 mps 753 mmHg 93%
    08:00 +29°C° 0 mm 2 mps 753 mmHg 85%
    09:00 +31°C° 0 mm 2 mps 754 mmHg 76%
    10:00 +34°C° 0 mm 2 mps 754 mmHg 68%
    11:00 +34°C° 0.2 mm 2 mps 753 mmHg 71%
    12:00 +34°C° 0.2 mm 2 mps 753 mmHg 75%
    13:00 +34°C° 0 mm 3 mps 753 mmHg 79%
    14:00 +33°C° 0.5 mm 3 mps 752 mmHg 81%
    15:00 +33°C° 0.5 mm 3 mps 752 mmHg 83%
    16:00 +33°C° 0.5 mm 3 mps 751 mmHg 85%
    17:00 +30°C° 0.4 mm 2 mps 752 mmHg 88%
    18:00 +29°C° 0.4 mm 2 mps 752 mmHg 92%
    19:00 +27°C° 0 mm 2 mps 753 mmHg 95%
    20:00 +27°C° 0.3 mm 2 mps 753 mmHg 96%
    21:00 +27°C° 0.3 mm 3 mps 753 mmHg 96%
    22:00 +27°C° 0.3 mm 3 mps 753 mmHg 96%
    23:00 +26°C° 0 mm 3 mps 753 mmHg 96%

    Tomorrow, 23 November, Thursday

    Time Temperature Precipitation Wind Pressure Humidity
    00:00 +26°C° 0 mm 3 mps 753 mmHg 96%
    01:00 +26°C° 0 mm 3 mps 753 mmHg 96%
    02:00 +26°C° 0 mm 3 mps 753 mmHg 96%
    03:00 +26°C° 0 mm 3 mps 753 mmHg 96%
    04:00 +26°C° 0 mm 3 mps 753 mmHg 96%
    05:00 +26°C° 0 mm 3 mps 753 mmHg 96%
    06:00 +26°C° 0 mm 3 mps 753 mmHg 96%
    07:00 +26°C° 0 mm 3 mps 754 mmHg 95%
    08:00 +28°C° 0 mm 3 mps 754 mmHg 86%
    09:00 +30°C° 0 mm 3 mps 754 mmHg 78%
    10:00 +32°C° 0 mm 2 mps 754 mmHg 69%
    11:00 +34°C° 0 mm 2 mps 754 mmHg 65%
    12:00 +34°C° 0 mm 3 mps 753 mmHg 62%
    13:00 +35°C° 0 mm 3 mps 753 mmHg 59%
    14:00 +35°C° 0 mm 3 mps 753 mmHg 62%
    15:00 +34°C° 0 mm 3 mps 752 mmHg 66%
    16:00 +33°C° 0 mm 3 mps 752 mmHg 69%
    17:00 +32°C° 0 mm 4 mps 752 mmHg 76%
    18:00 +29°C° 0 mm 4 mps 752 mmHg 83%
    19:00 +27°C° 0 mm 4 mps 753 mmHg 90%
    20:00 +27°C° 0.1 mm 4 mps 753 mmHg 90%
    21:00 +27°C° 0.1 mm 5 mps 754 mmHg 90%
    22:00 +27°C° 0.1 mm 5 mps 754 mmHg 89%
    23:00 +27°C° 0 mm 5 mps 754 mmHg 88%

    Day after tomorrow, 24 November, Friday

    Time Temperature Precipitation Wind Pressure Humidity
    00:00 +27°C° 0 mm 5 mps 754 mmHg 87%
    01:00 +27°C° 0 mm 5 mps 754 mmHg 86%
    02:00 +26°C° 0 mm 5 mps 754 mmHg 86%
    03:00 +26°C° 0 mm 5 mps 754 mmHg 86%
    04:00 +26°C° 0 mm 5 mps 753 mmHg 86%
    05:00 +26°C° 0 mm 5 mps 754 mmHg 86%
    06:00 +26°C° 0 mm 5 mps 754 mmHg 86%
    07:00 +26°C° 0 mm 5 mps 754 mmHg 85%
    08:00 +27°C° 0 mm 5 mps 755 mmHg 79%
    09:00 +29°C° 0 mm 4 mps 755 mmHg 73%
    10:00 +30°C° 0 mm 4 mps 756 mmHg 68%
    11:00 +32°C° 0 mm 4 mps 755 mmHg 65%
    12:00 +33°C° 0 mm 4 mps 755 mmHg 62%
    13:00 +34°C° 0 mm 5 mps 754 mmHg 60%
    14:00 +33°C° 0 mm 5 mps 754 mmHg 64%
    15:00 +32°C° 0 mm 5 mps 753 mmHg 68%
    16:00 +30°C° 0 mm 5 mps 753 mmHg 72%
    17:00 +29°C° 0 mm 5 mps 753 mmHg 77%
    18:00 +27°C° 0 mm 6 mps 754 mmHg 82%
    19:00 +26°C° 0 mm 6 mps 754 mmHg 86%
    20:00 +26°C° 0 mm 6 mps 754 mmHg 86%
    21:00 +26°C° 0 mm 5 mps 755 mmHg 86%
    22:00 +26°C° 0 mm 5 mps 755 mmHg 86%
    23:00 +26°C° 0 mm 5 mps 755 mmHg 87%

    25 November, Saturday

    Time Temperature Precipitation Wind Pressure Humidity
    00:00 +26°C° 0 mm 5 mps 755 mmHg 87%
    01:00 +26°C° 0 mm 5 mps 755 mmHg 88%
    02:00 +26°C° 0 mm 4 mps 754 mmHg 89%
    03:00 +25°C° 0 mm 4 mps 754 mmHg 89%
    04:00 +25°C° 0 mm 4 mps 754 mmHg 90%
    05:00 +25°C° 0 mm 4 mps 754 mmHg 90%
    06:00 +25°C° 0 mm 5 mps 754 mmHg 89%
    07:00 +25°C° 0 mm 5 mps 755 mmHg 88%
    08:00 +27°C° 0 mm 5 mps 755 mmHg 82%
    09:00 +29°C° 0 mm 5 mps 756 mmHg 76%
    10:00 +30°C° 0 mm 5 mps 756 mmHg 70%
    11:00 +32°C° 0 mm 4 mps 755 mmHg 66%
    12:00 +33°C° 0 mm 4 mps 755 mmHg 62%
    13:00 +34°C° 0 mm 4 mps 754 mmHg 59%
    14:00 +34°C° 0 mm 4 mps 754 mmHg 61%
    15:00 +33°C° 0 mm 4 mps 753 mmHg 64%
    16:00 +33°C° 0 mm 5 mps 753 mmHg 66%
    17:00 +30°C° 0.1 mm 5 mps 753 mmHg 72%
    18:00 +28°C° 0.1 mm 6 mps 754 mmHg 78%
    19:00 +27°C° 0.1 mm 6 mps 754 mmHg 84%
    20:00 +27°C° 0 mm 6 mps 755 mmHg 85%
    21:00 +26°C° 0 mm 5 mps 755 mmHg 86%
    22:00 +26°C° 0 mm 5 mps 756 mmHg 86%
    23:00 +26°C° 0 mm 5 mps 756 mmHg 88%

    26 November, Sunday

    Time Temperature Precipitation Wind Pressure Humidity
    00:00 +26°C° 0 mm 5 mps 755 mmHg 89%
    01:00 +26°C° 0 mm 5 mps 755 mmHg 90%
    02:00 +26°C° 0 mm 5 mps 755 mmHg 90%
    03:00 +26°C° 0 mm 5 mps 754 mmHg 91%
    04:00 +25°C° 0 mm 5 mps 754 mmHg 91%
    05:00 +25°C° 0 mm 5 mps 754 mmHg 91%
    06:00 +26°C° 0 mm 4 mps 755 mmHg 90%
    07:00 +26°C° 0 mm 4 mps 755 mmHg 89%
    08:00 +27°C° 0 mm 4 mps 756 mmHg 82%
    09:00 +29°C° 0 mm 4 mps 756 mmHg 75%
    10:00 +32°C° 0 mm 4 mps 756 mmHg 68%
    11:00 +32°C° 0 mm 4 mps 755 mmHg 66%
    12:00 +33°C° 0 mm 3 mps 755 mmHg 64%
    13:00 +34°C° 0 mm 3 mps 754 mmHg 62%
    14:00 +34°C° 0 mm 3 mps 753 mmHg 64%
    15:00 +33°C° 0 mm 4 mps 753 mmHg 66%
    16:00 +33°C° 0 mm 4 mps 752 mmHg 68%
    17:00 +30°C° 0.2 mm 4 mps 753 mmHg 75%
    18:00 +29°C° 0.2 mm 4 mps 753 mmHg 82%
    19:00 +27°C° 0.2 mm 4 mps 754 mmHg 89%
    20:00 +27°C° 0.5 mm 4 mps 754 mmHg 90%
    21:00 +26°C° 0.5 mm 4 mps 754 mmHg 92%
    22:00 +26°C° 0.5 mm 3 mps 755 mmHg 93%
    23:00 +26°C° 0.3 mm 3 mps 754 mmHg 93%

    27 November, Monday

    Time Temperature Precipitation Wind Pressure Humidity
    00:00 +26°C° 0.3 mm 3 mps 754 mmHg 93%
    01:00 +26°C° 0.3 mm 3 mps 754 mmHg 93%
    02:00 +26°C° 0.2 mm 4 mps 753 mmHg 93%
    03:00 +26°C° 0.2 mm 4 mps 753 mmHg 92%
    04:00 +26°C° 0.2 mm 5 mps 753 mmHg 92%
    05:00 +26°C° 0 mm 5 mps 753 mmHg 92%
    06:00 +26°C° 0 mm 5 mps 754 mmHg 92%
    07:00 +26°C° 0 mm 4 mps 754 mmHg 91%
    08:00 +28°C° 0 mm 4 mps 754 mmHg 82%
    09:00 +30°C° 0 mm 4 mps 755 mmHg 73%
    10:00 +33°C° 0 mm 3 mps 755 mmHg 64%
    11:00 +34°C° 0 mm 3 mps 754 mmHg 61%
    12:00 +34°C° 0 mm 3 mps 753 mmHg 59%
    13:00 +35°C° 0 mm 3 mps 753 mmHg 56%
    14:00 +35°C° 0 mm 3 mps 752 mmHg 59%
    15:00 +34°C° 0 mm 4 mps 752 mmHg 62%
    16:00 +34°C° 0 mm 4 mps 751 mmHg 65%
    17:00 +32°C° 0 mm 4 mps 752 mmHg 74%
    18:00 +29°C° 0 mm 4 mps 752 mmHg 82%
    19:00 +27°C° 0 mm 4 mps 753 mmHg 90%
    20:00 +27°C° 0.4 mm 4 mps 753 mmHg 92%
    21:00 +26°C° 0.4 mm 4 mps 754 mmHg 93%
    22:00 +26°C° 0.4 mm 4 mps 754 mmHg 95%
    23:00 +26°C° 0.1 mm 3 mps 753 mmHg 95%
    Show more